Time,TemperatureF,DewpointF,PressureIn,WindDirection,WindDirectionDegrees,WindSpeedMPH,WindSpeedGustMPH,Humidity,HourlyPrecipIn,Conditions,Clouds,dailyrainin,SoftwareType,DateUTC
2013-08-05 00:00:00,70.5,65.8,30.05,SE,135,3.0,8.0,85,0.00,,---,0.00,VWS V14.01,2013-08-05 05:00:00,
2013-08-05 00:09:00,69.9,66.0,30.05,SSE,155,2.0,6.0,86,0.00,,,0.00,weatherlink.com 1.10,2013-08-05 05:09:00,
2013-08-05 00:10:00,70.2,65.8,30.05,SSE,158,2.0,6.0,86,0.00,,---,0.00,VWS V14.01,2013-08-05 05:10:00,
2013-08-05 00:20:00,69.8,65.8,30.05,SSE,158,3.0,5.0,87,0.00,,---,0.00,VWS V14.01,2013-08-05 05:20:00,
2013-08-05 00:24:00,69.7,66.0,30.05,SSE,153,2.0,4.0,87,0.00,,,0.00,weatherlink.com 1.10,2013-08-05 05:24:00,
2013-08-05 00:30:00,69.6,65.9,30.05,SSE,158,2.0,6.0,88,0.00,,---,0.00,VWS V14.01,2013-08-05 05:30:00,
2013-08-05 00:39:00,69.1,66.0,30.04,SE,130,1.0,5.0,88,0.00,,,0.00,weatherlink.com 1.10,2013-08-05 05:39:00,
2013-08-05 00:40:00,69.1,65.4,30.04,SE,135,2.0,5.0,88,0.00,,---,0.00,VWS V14.01,2013-08-05 05:40:00,
2013-08-05 00:50:00,69.2,65.8,30.04,SSW,202,2.0,4.0,89,0.00,,---,0.00,VWS V14.01,2013-08-05 05:50:00,
2013-08-05 00:54:00,68.7,65.0,30.04,South,174,1.0,7.0,89,0.00,,,0.00,weatherlink.com 1.10,2013-08-05 05:54:00,
2013-08-05 01:00:00,68.7,65.7,30.03,SSW,202,3.0,8.0,90,0.00,,---,0.00,VWS V14.01,2013-08-05 06:00:00,
2013-08-05 01:09:00,68.8,66.0,30.03,West,259,3.0,10.0,89,0.00,,,0.00,weatherlink.com 1.10,2013-08-05 06:09:00,
2013-08-05 01:10:00,68.7,65.3,30.03,SSW,202,3.0,10.0,89,0.00,,---,0.00,VWS V14.01,2013-08-05 06:10:00,
2013-08-05 01:20:00,68.5,65.8,30.02,SSW,202,3.0,8.0,91,0.00,,---,0.00,VWS V14.01,2013-08-05 06:20:00,
2013-08-05 01:24:00,68.1,65.0,30.02,SE,140,5.0,7.0,91,0.00,,,0.00,weatherlink.com 1.10,2013-08-05 06:24:00,
2013-08-05 01:30:00,68.1,65.4,30.02,SSW,202,3.0,8.0,91,0.00,,---,0.00,VWS V14.01,2013-08-05 06:30:00,
2013-08-05 01:39:00,68.4,66.0,30.02,South,177,1.0,7.0,91,0.00,,,0.00,weatherlink.com 1.10,2013-08-05 06:39:00,
2013-08-05 01:40:00,68.2,65.5,30.02,SSW,202,2.0,7.0,91,0.00,,---,0.00,VWS V14.01,2013-08-05 06:40:00,
2013-08-05 01:50:00,68.5,65.8,30.01,SSW,202,3.0,8.0,91,0.00,,---,0.00,VWS V14.01,2013-08-05 06:50:00,
2013-08-05 01:54:00,68.3,66.0,30.01,South,190,2.0,10.0,91,0.00,,,0.00,weatherlink.com 1.10,2013-08-05 06:54:00,
2013-08-05 02:00:00,68.3,65.6,30.01,SSW,202,3.0,10.0,91,0.00,,---,0.00,VWS V14.01,2013-08-05 07:00:00,
2013-08-05 02:09:00,68.4,66.0,30.00,SSE,150,5.0,8.0,91,0.00,,,0.00,weatherlink.com 1.10,2013-08-05 07:09:00,
2013-08-05 02:10:00,68.4,65.7,30.00,SSW,202,4.0,8.0,91,0.00,,---,0.00,VWS V14.01,2013-08-05 07:10:00,
2013-08-05 02:20:00,68.4,66.0,30.00,SSW,202,3.0,9.0,92,0.00,,---,0.00,VWS V14.01,2013-08-05 07:20:00,
2013-08-05 02:24:00,68.4,66.0,30.00,South,190,2.0,5.0,92,0.00,,,0.00,weatherlink.com 1.10,2013-08-05 07:24:00,
2013-08-05 02:30:00,68.4,66.0,29.99,SSW,202,4.0,9.0,92,0.00,,---,0.00,VWS V14.01,2013-08-05 07:30:00,
2013-08-05 02:39:00,68.7,66.0,29.99,South,191,3.0,10.0,91,0.00,,,0.00,weatherlink.com 1.10,2013-08-05 07:39:00,
2013-08-05 02:40:00,68.8,66.1,29.99,SSW,202,4.0,10.0,91,0.00,,---,0.00,VWS V14.01,2013-08-05 07:40:00,
2013-08-05 02:50:00,68.6,66.2,29.98,South,180,3.0,8.0,92,0.00,,---,0.00,VWS V14.01,2013-08-05 07:50:00,
2013-08-05 02:54:00,68.3,66.0,29.98,SSW,196,4.0,8.0,92,0.00,,,0.00,weatherlink.com 1.10,2013-08-05 07:54:00,
2013-08-05 03:00:00,68.3,66.2,29.98,SSW,202,3.0,8.0,93,0.00,,---,0.00,VWS V14.01,2013-08-05 08:00:00,
2013-08-05 03:09:00,68.1,66.0,29.98,SSE,158,6.0,6.0,93,0.00,,,0.00,weatherlink.com 1.10,2013-08-05 08:09:00,
2013-08-05 03:10:00,68.1,66.0,29.98,SSW,202,3.0,6.0,93,0.00,,---,0.00,VWS V14.01,2013-08-05 08:10:00,
2013-08-05 03:20:00,68.1,66.0,29.98,SSW,202,3.0,7.0,93,0.00,,---,0.00,VWS V14.01,2013-08-05 08:20:00,
2013-08-05 03:24:00,68.4,66.0,29.98,SSE,151,2.0,7.0,93,0.00,,,0.00,weatherlink.com 1.10,2013-08-05 08:24:00,
2013-08-05 03:30:00,68.3,66.2,29.97,SSW,202,3.0,7.0,93,0.00,,---,0.00,VWS V14.01,2013-08-05 08:30:00,
2013-08-05 03:39:00,68.3,66.0,29.97,South,179,4.0,10.0,93,0.00,,,0.00,weatherlink.com 1.10,2013-08-05 08:39:00,
2013-08-05 03:40:00,68.3,66.2,29.97,SSW,202,5.0,10.0,93,0.00,,---,0.00,VWS V14.01,2013-08-05 08:40:00,
2013-08-05 03:50:00,68.3,66.5,29.97,SSW,202,3.0,7.0,94,0.00,,---,0.00,VWS V14.01,2013-08-05 08:50:00,
2013-08-05 03:54:00,68.4,67.0,29.96,SSW,212,4.0,7.0,94,0.00,,,0.00,weatherlink.com 1.10,2013-08-05 08:54:00,
2013-08-05 04:00:00,68.4,66.6,29.97,SSW,202,3.0,9.0,94,0.00,,---,0.00,VWS V14.01,2013-08-05 09:00:00,
2013-08-05 04:09:00,68.5,67.0,29.96,SSE,163,3.0,8.0,94,0.00,,,0.00,weatherlink.com 1.10,2013-08-05 09:09:00,
2013-08-05 04:10:00,68.5,66.7,29.96,SSW,202,4.0,8.0,94,0.00,,---,0.00,VWS V14.01,2013-08-05 09:10:00,
2013-08-05 04:20:00,68.5,66.7,29.96,SSW,202,5.0,12.0,94,0.00,,---,0.00,VWS V14.01,2013-08-05 09:20:00,
2013-08-05 04:30:00,68.7,66.9,29.96,SSW,202,4.0,11.0,94,0.00,,---,0.00,VWS V14.01,2013-08-05 09:30:00,
2013-08-05 04:40:00,68.6,66.8,29.95,SSW,202,5.0,11.0,94,0.00,,---,0.00,VWS V14.01,2013-08-05 09:40:00,
2013-08-05 04:50:00,68.6,67.1,29.96,SSW,202,5.0,12.0,95,0.00,,---,0.00,VWS V14.01,2013-08-05 09:50:00,
2013-08-05 04:54:00,68.6,67.0,29.95,NE,52,3.0,12.0,95,0.00,,,0.00,weatherlink.com 1.10,2013-08-05 09:54:00,
2013-08-05 05:00:00,68.6,67.1,29.95,SSW,202,5.0,14.0,95,0.00,,---,0.00,VWS V14.01,2013-08-05 10:00:00,
2013-08-05 05:09:00,68.6,67.0,29.95,SSW,212,6.0,11.0,95,0.00,,,0.00,weatherlink.com 1.10,2013-08-05 10:09:00,
2013-08-05 05:10:00,68.6,67.1,29.95,SSW,202,4.0,14.0,95,0.00,,---,0.00,VWS V14.01,2013-08-05 10:10:00,
2013-08-05 05:20:00,68.7,67.2,29.95,SSW,202,4.0,9.0,95,0.00,,---,0.00,VWS V14.01,2013-08-05 10:20:00,
2013-08-05 05:24:00,68.8,67.0,29.95,SSW,200,2.0,9.0,95,0.00,,,0.00,weatherlink.com 1.10,2013-08-05 10:24:00,
2013-08-05 05:30:00,68.8,67.3,29.95,SSW,202,4.0,9.0,95,0.00,,---,0.00,VWS V14.01,2013-08-05 10:30:00,
2013-08-05 05:40:00,68.9,68.0,29.95,SSE,157,2.0,9.0,95,0.00,,,0.00,weatherlink.com 1.10,2013-08-05 10:40:00,
2013-08-05 05:50:00,69.0,67.5,29.95,SSW,202,5.0,11.0,95,0.00,,---,0.00,VWS V14.01,2013-08-05 10:50:00,
2013-08-05 05:55:00,69.0,68.0,29.95,SSW,192,4.0,11.0,95,0.00,,,0.00,weatherlink.com 1.10,2013-08-05 10:55:00,
2013-08-05 06:00:00,69.0,67.5,29.95,SSW,202,4.0,12.0,95,0.00,,---,0.00,VWS V14.01,2013-08-05 11:00:00,
2013-08-05 06:10:00,69.2,67.7,29.95,SSW,202,4.0,9.0,95,0.00,,---,0.00,VWS V14.01,2013-08-05 11:10:00,
2013-08-05 06:20:00,69.1,67.9,29.95,SSW,202,5.0,10.0,96,0.00,,---,0.00,VWS V14.01,2013-08-05 11:20:00,
2013-08-05 06:25:00,69.1,68.0,29.96,SSW,196,4.0,8.0,96,0.00,,,0.00,weatherlink.com 1.10,2013-08-05 11:25:00,
2013-08-05 06:30:00,69.1,67.9,29.96,SSW,202,4.0,8.0,96,0.00,,---,0.00,VWS V14.01,2013-08-05 11:30:00,
2013-08-05 06:40:00,69.2,68.0,29.96,SSW,194,3.0,8.0,96,0.00,,,0.00,weatherlink.com 1.10,2013-08-05 11:40:00,
2013-08-05 06:50:00,69.2,68.0,29.96,SSW,202,4.0,11.0,96,0.00,,---,0.00,VWS V14.01,2013-08-05 11:50:00,
2013-08-05 06:55:00,69.3,68.0,29.95,SSW,194,6.0,11.0,96,0.00,,,0.00,weatherlink.com 1.10,2013-08-05 11:55:00,
2013-08-05 07:00:00,69.4,67.9,29.95,SSW,202,4.0,9.0,95,0.00,,---,0.00,VWS V14.01,2013-08-05 12:00:00,
2013-08-05 07:10:00,69.5,68.0,29.95,SSW,202,3.0,9.0,95,0.00,,---,0.00,VWS V14.01,2013-08-05 12:10:00,
2013-08-05 07:20:00,69.6,68.1,29.95,SSW,202,4.0,9.0,95,0.00,,---,0.00,VWS V14.01,2013-08-05 12:20:00,
2013-08-05 07:25:00,69.9,69.0,29.95,SSW,192,4.0,10.0,95,0.00,,,0.00,weatherlink.com 1.10,2013-08-05 12:25:00,
2013-08-05 07:30:00,69.9,68.4,29.95,SSW,202,3.0,10.0,95,0.00,,---,0.00,VWS V14.01,2013-08-05 12:30:00,
2013-08-05 07:39:00,70.1,69.0,29.95,SSW,195,3.0,7.0,95,0.00,,,0.00,weatherlink.com 1.10,2013-08-05 12:39:00,
2013-08-05 07:40:00,70.1,68.6,29.95,SSW,202,3.0,7.0,95,0.00,,---,0.00,VWS V14.01,2013-08-05 12:40:00,
2013-08-05 07:50:00,70.2,68.7,29.95,SSW,202,2.0,6.0,95,0.00,,---,0.00,VWS V14.01,2013-08-05 12:50:00,
2013-08-05 07:54:00,70.3,69.0,29.95,SE,141,1.0,11.0,95,0.00,,,0.00,weatherlink.com 1.10,2013-08-05 12:54:00,
2013-08-05 08:00:00,70.4,68.9,29.95,SSW,202,4.0,11.0,95,0.00,,---,0.00,VWS V14.01,2013-08-05 13:00:00,
2013-08-05 08:10:00,70.5,69.0,29.95,SSW,202,3.0,9.0,95,0.00,,---,0.00,VWS V14.01,2013-08-05 13:10:00,
2013-08-05 08:20:00,70.6,69.1,29.94,SSW,202,2.0,8.0,95,0.00,,---,0.00,VWS V14.01,2013-08-05 13:20:00,
2013-08-05 08:25:00,70.9,69.0,29.94,South,169,4.0,8.0,94,0.00,,,0.00,weatherlink.com 1.10,2013-08-05 13:25:00,
2013-08-05 08:30:00,70.9,69.1,29.94,SSW,202,2.0,8.0,94,0.00,,---,0.00,VWS V14.01,2013-08-05 13:30:00,
2013-08-05 08:40:00,71.5,69.0,29.95,SW,226,1.0,5.0,93,0.00,,,0.00,weatherlink.com 1.10,2013-08-05 13:40:00,
2013-08-05 08:50:00,71.7,69.6,29.95,SW,225,1.0,6.0,93,0.00,,---,0.00,VWS V14.01,2013-08-05 13:50:00,
2013-08-05 08:55:00,72.3,70.0,29.95,ENE,72,2.0,4.0,92,0.00,,,0.00,weatherlink.com 1.10,2013-08-05 13:55:00,
2013-08-05 09:00:00,72.3,69.5,29.94,SSW,202,2.0,7.0,91,0.00,,---,0.00,VWS V14.01,2013-08-05 14:00:00,
2013-08-05 09:10:00,72.8,69.7,29.95,SSW,202,2.0,6.0,90,0.00,,---,0.00,VWS V14.01,2013-08-05 14:10:00,
2013-08-05 09:20:00,73.4,70.0,29.95,SW,225,2.0,6.0,89,0.00,,---,0.00,VWS V14.01,2013-08-05 14:20:00,
2013-08-05 09:25:00,73.7,70.0,29.95,NNW,347,3.0,6.0,89,0.00,,,0.00,weatherlink.com 1.10,2013-08-05 14:25:00,
2013-08-05 09:30:00,73.7,70.3,29.94,SSW,202,2.0,6.0,89,0.00,,---,0.00,VWS V14.01,2013-08-05 14:30:00,
2013-08-05 09:40:00,73.9,70.0,29.95,SE,146,0.0,10.0,88,0.00,,,0.00,weatherlink.com 1.10,2013-08-05 14:40:00,
2013-08-05 09:50:00,74.2,70.1,29.95,WSW,248,1.0,5.0,87,0.00,,---,0.00,VWS V14.01,2013-08-05 14:50:00,
2013-08-05 09:55:00,74.5,71.0,29.95,SSE,158,0.0,5.0,87,0.00,,,0.00,weatherlink.com 1.10,2013-08-05 14:55:00,
2013-08-05 10:00:00,74.5,70.4,29.96,ENE,68,1.0,3.0,87,0.00,,---,0.00,VWS V14.01,2013-08-05 15:00:00,
2013-08-05 10:10:00,75.2,71.0,29.96,South,181,1.0,4.0,86,0.00,,,0.00,weatherlink.com 1.10,2013-08-05 15:10:00,
2013-08-05 10:20:00,75.7,70.5,29.96,SSW,202,2.0,5.0,84,0.00,,---,0.00,VWS V14.01,2013-08-05 15:20:00,
2013-08-05 10:25:00,76.2,71.0,29.96,NE,44,1.0,6.0,84,0.00,,,0.00,weatherlink.com 1.10,2013-08-05 15:25:00,
2013-08-05 10:30:00,76.2,70.7,29.96,SSW,202,1.0,6.0,83,0.00,,---,0.00,VWS V14.01,2013-08-05 15:30:00,
2013-08-05 10:40:00,77.2,71.0,29.96,SSW,196,1.0,4.0,82,0.00,,,0.00,weatherlink.com 1.10,2013-08-05 15:40:00,
2013-08-05 10:50:00,77.5,71.2,29.95,SSW,202,2.0,6.0,81,0.00,,---,0.00,VWS V14.01,2013-08-05 15:50:00,
2013-08-05 11:00:00,79.0,70.8,29.96,ENE,68,1.0,4.0,76,0.00,,---,0.00,VWS V14.01,2013-08-05 16:00:00,
2013-08-05 11:10:00,80.5,72.0,29.96,East,92,1.0,2.0,75,0.00,,,0.00,weatherlink.com 1.10,2013-08-05 16:10:00,
2013-08-05 11:20:00,80.5,71.8,29.96,SW,225,0.0,4.0,75,0.00,,---,0.00,VWS V14.01,2013-08-05 16:20:00,
2013-08-05 11:25:00,80.9,72.0,29.96,SE,124,0.0,1.0,75,0.00,,,0.00,weatherlink.com 1.10,2013-08-05 16:25:00,
2013-08-05 11:30:00,80.8,71.7,29.96,SSW,202,0.0,1.0,74,0.00,,---,0.00,VWS V14.01,2013-08-05 16:30:00,
2013-08-05 11:40:00,80.7,72.0,29.97,West,268,0.0,1.0,74,0.00,,,0.00,weatherlink.com 1.10,2013-08-05 16:40:00,
2013-08-05 11:50:00,80.3,72.1,29.98,NNE,22,0.0,3.0,76,0.00,,---,0.00,VWS V14.01,2013-08-05 16:50:00,
2013-08-05 11:55:00,78.6,72.0,29.98,NNE,14,0.0,5.0,80,0.00,,,0.00,weatherlink.com 1.10,2013-08-05 16:55:00,
2013-08-05 12:00:00,78.7,72.8,29.98,North,0,1.0,5.0,82,0.00,,---,0.00,VWS V14.01,2013-08-05 17:00:00,
2013-08-05 12:10:00,77.7,72.1,29.98,North,0,1.0,2.0,83,0.00,,---,0.00,VWS V14.01,2013-08-05 17:10:00,
2013-08-05 12:20:00,76.7,72.2,29.98,North,0,1.0,3.0,86,0.01,,---,0.01,VWS V14.01,2013-08-05 17:20:00,
2013-08-05 12:25:00,75.8,72.0,29.98,North,353,1.0,6.0,88,0.02,,,0.02,weatherlink.com 1.10,2013-08-05 17:25:00,
2013-08-05 12:30:00,75.8,72.0,29.97,North,0,3.0,13.0,88,0.05,,---,0.05,VWS V14.01,2013-08-05 17:30:00,
2013-08-05 12:40:00,73.8,70.0,29.91,SE,127,6.0,10.0,89,0.10,,,0.10,weatherlink.com 1.10,2013-08-05 17:40:00,
2013-08-05 12:50:00,73.6,71.5,29.91,ENE,68,3.0,8.0,93,0.10,,---,0.10,VWS V14.01,2013-08-05 17:50:00,
2013-08-05 12:56:00,74.3,72.0,29.91,SSE,167,1.0,6.0,93,0.10,,,0.10,weatherlink.com 1.10,2013-08-05 17:56:00,
2013-08-05 13:00:00,74.3,72.5,29.92,North,0,1.0,5.0,94,0.10,,---,0.10,VWS V14.01,2013-08-05 18:00:00,
2013-08-05 13:10:00,74.3,71.2,29.93,North,0,4.0,8.0,90,0.10,,---,0.10,VWS V14.01,2013-08-05 18:10:00,
2013-08-05 13:11:00,73.7,71.0,29.93,WSW,240,2.0,8.0,90,0.10,,,0.10,weatherlink.com 1.10,2013-08-05 18:11:00,
2013-08-05 13:20:00,73.8,70.7,29.92,North,0,1.0,4.0,90,0.10,,---,0.10,VWS V14.01,2013-08-05 18:20:00,
2013-08-05 13:26:00,75.0,71.0,29.92,NNE,18,3.0,5.0,86,0.08,,,0.10,weatherlink.com 1.10,2013-08-05 18:26:00,
2013-08-05 13:30:00,74.9,70.8,29.91,NNE,22,1.0,5.0,87,0.09,,---,0.10,VWS V14.01,2013-08-05 18:30:00,
2013-08-05 13:40:00,76.0,71.2,29.91,North,0,2.0,5.0,85,0.05,,---,0.10,VWS V14.01,2013-08-05 18:40:00,
2013-08-05 13:41:00,76.2,71.0,29.91,North,353,1.0,5.0,85,0.00,,,0.10,weatherlink.com 1.10,2013-08-05 18:41:00,
2013-08-05 13:50:00,76.2,71.4,29.91,North,0,1.0,4.0,85,0.00,,---,0.10,VWS V14.01,2013-08-05 18:50:00,
2013-08-05 13:56:00,77.8,72.0,29.90,SE,143,1.0,2.0,83,0.00,,,0.10,weatherlink.com 1.10,2013-08-05 18:56:00,
2013-08-05 14:00:00,77.6,71.3,29.89,SSW,202,2.0,8.0,81,0.00,,---,0.10,VWS V14.01,2013-08-05 19:00:00,
2013-08-05 14:10:00,78.5,72.9,29.88,SSW,202,4.0,11.0,83,0.00,,---,0.10,VWS V14.01,2013-08-05 19:10:00,
2013-08-05 14:20:00,80.1,73.4,29.87,SSW,202,4.0,11.0,80,0.00,,---,0.10,VWS V14.01,2013-08-05 19:20:00,
2013-08-05 14:26:00,81.7,75.0,29.86,SSW,205,3.0,13.0,80,0.00,,,0.10,weatherlink.com 1.10,2013-08-05 19:26:00,
2013-08-05 14:30:00,81.7,73.4,29.85,SSW,202,5.0,13.0,76,0.00,,---,0.10,VWS V14.01,2013-08-05 19:30:00,
2013-08-05 14:40:00,81.8,73.1,29.86,SSW,202,7.0,15.0,75,0.00,,---,0.10,VWS V14.01,2013-08-05 19:40:00,
2013-08-05 14:41:00,81.4,73.0,29.86,SSW,203,7.0,15.0,75,0.00,,,0.10,weatherlink.com 1.10,2013-08-05 19:41:00,
2013-08-05 14:50:00,81.6,72.9,29.86,SSW,202,7.0,14.0,75,0.00,,---,0.10,VWS V14.01,2013-08-05 19:50:00,
2013-08-05 14:56:00,83.0,74.0,29.85,SW,216,6.0,12.0,74,0.00,,,0.10,weatherlink.com 1.10,2013-08-05 19:56:00,
2013-08-05 15:00:00,82.9,72.9,29.85,SSW,202,6.0,12.0,72,0.00,,---,0.10,VWS V14.01,2013-08-05 20:00:00,
2013-08-05 15:10:00,84.2,73.4,29.86,SSW,202,4.0,9.0,70,0.00,,---,0.10,VWS V14.01,2013-08-05 20:10:00,
2013-08-05 15:11:00,84.9,74.0,29.86,SSW,203,10.0,12.0,70,0.00,,,0.10,weatherlink.com 1.10,2013-08-05 20:11:00,
2013-08-05 15:20:00,85.0,73.7,29.86,SSW,202,5.0,13.0,69,0.00,,---,0.10,VWS V14.01,2013-08-05 20:20:00,
2013-08-05 15:26:00,84.7,73.0,29.86,SSE,152,7.0,12.0,69,0.00,,,0.10,weatherlink.com 1.10,2013-08-05 20:26:00,
2013-08-05 15:30:00,84.7,73.8,29.86,SSW,202,7.0,13.0,70,0.00,,---,0.10,VWS V14.01,2013-08-05 20:30:00,
2013-08-05 15:40:00,84.8,73.9,29.87,SSW,202,3.0,10.0,70,0.00,,---,0.10,VWS V14.01,2013-08-05 20:40:00,
2013-08-05 15:41:00,84.9,74.0,29.87,West,262,0.0,8.0,69,0.00,,,0.10,weatherlink.com 1.10,2013-08-05 20:41:00,
2013-08-05 15:50:00,85.6,72.9,29.88,ENE,68,1.0,3.0,66,0.00,,---,0.10,VWS V14.01,2013-08-05 20:50:00,
2013-08-05 15:56:00,86.1,74.0,29.88,East,89,1.0,2.0,67,0.00,,,0.10,weatherlink.com 1.10,2013-08-05 20:56:00,
2013-08-05 16:00:00,86.1,73.9,29.88,NE,45,0.0,2.0,67,0.00,,---,0.10,VWS V14.01,2013-08-05 21:00:00,
2013-08-05 16:10:00,86.1,73.9,29.88,ESE,112,1.0,2.0,67,0.00,,---,0.10,VWS V14.01,2013-08-05 21:10:00,
2013-08-05 16:11:00,86.3,74.0,29.88,NE,44,1.0,2.0,67,0.00,,,0.10,weatherlink.com 1.10,2013-08-05 21:11:00,
2013-08-05 16:20:00,86.4,74.2,29.88,SE,135,1.0,7.0,67,0.00,,---,0.10,VWS V14.01,2013-08-05 21:20:00,
2013-08-05 16:26:00,87.1,75.0,29.88,SSE,149,3.0,7.0,68,0.00,,,0.10,weatherlink.com 1.10,2013-08-05 21:26:00,
2013-08-05 16:30:00,87.0,74.3,29.87,ESE,112,2.0,5.0,66,0.00,,---,0.10,VWS V14.01,2013-08-05 21:30:00,
2013-08-05 16:40:00,87.7,74.0,29.88,SE,135,1.0,3.0,64,0.00,,---,0.10,VWS V14.01,2013-08-05 21:40:00,
2013-08-05 16:50:00,88.4,74.2,29.88,SW,225,1.0,2.0,63,0.00,,---,0.10,VWS V14.01,2013-08-05 21:50:00,
2013-08-05 17:00:00,89.4,73.2,29.88,East,90,1.0,4.0,59,0.00,,---,0.10,VWS V14.01,2013-08-05 22:00:00,
2013-08-05 17:10:00,89.2,75.0,29.87,ESE,112,2.0,6.0,63,0.00,,---,0.10,VWS V14.01,2013-08-05 22:10:00,
2013-08-05 17:11:00,89.0,75.0,29.87,SE,136,1.0,6.0,63,0.00,,,0.10,weatherlink.com 1.10,2013-08-05 22:11:00,
2013-08-05 17:20:00,88.6,75.3,29.87,East,90,2.0,6.0,65,0.00,,---,0.10,VWS V14.01,2013-08-05 22:20:00,
2013-08-05 17:26:00,88.3,74.0,29.87,East,84,0.0,2.0,63,0.00,,,0.10,weatherlink.com 1.10,2013-08-05 22:26:00,
2013-08-05 17:30:00,88.2,74.0,29.87,East,90,1.0,3.0,63,0.00,,---,0.10,VWS V14.01,2013-08-05 22:30:00,
2013-08-05 17:40:00,87.8,73.6,29.87,NE,45,1.0,4.0,63,0.00,,---,0.10,VWS V14.01,2013-08-05 22:40:00,
2013-08-05 17:50:00,88.3,73.2,29.87,SE,135,1.0,3.0,61,0.00,,---,0.10,VWS V14.01,2013-08-05 22:50:00,
2013-08-05 18:00:00,88.4,73.7,29.87,ESE,112,1.0,3.0,62,0.00,,---,0.10,VWS V14.01,2013-08-05 23:00:00,
2013-08-05 18:10:00,87.9,73.7,29.87,SE,135,1.0,4.0,63,0.00,,---,0.10,VWS V14.01,2013-08-05 23:10:00,
2013-08-05 18:20:00,87.4,72.8,29.87,ENE,68,0.0,2.0,62,0.00,,---,0.10,VWS V14.01,2013-08-05 23:20:00,
2013-08-05 18:26:00,86.7,73.0,29.87,East,80,0.0,3.0,63,0.00,,,0.10,weatherlink.com 1.10,2013-08-05 23:26:00,
2013-08-05 18:30:00,86.8,72.7,29.86,NNE,22,1.0,3.0,63,0.00,,---,0.10,VWS V14.01,2013-08-05 23:30:00,
2013-08-05 18:40:00,85.3,74.0,29.86,North,0,1.0,7.0,69,0.00,,---,0.10,VWS V14.01,2013-08-05 23:40:00,
2013-08-05 18:50:00,83.4,74.7,29.86,North,0,2.0,5.0,75,0.00,,---,0.10,VWS V14.01,2013-08-05 23:50:00,
2013-08-05 19:00:00,82.0,74.5,29.86,North,0,2.0,5.0,78,0.00,,---,0.10,VWS V14.01,2013-08-06 00:00:00,
2013-08-05 19:10:00,81.3,74.5,29.87,North,0,2.0,4.0,80,0.00,,---,0.10,VWS V14.01,2013-08-06 00:10:00,
2013-08-05 19:20:00,80.8,74.1,29.87,North,0,1.0,4.0,80,0.00,,---,0.10,VWS V14.01,2013-08-06 00:20:00,
2013-08-05 19:30:00,80.5,73.8,29.87,North,0,1.0,3.0,80,0.00,,---,0.10,VWS V14.01,2013-08-06 00:30:00,
2013-08-05 19:40:00,80.1,73.8,29.88,NNW,338,1.0,3.0,81,0.00,,---,0.10,VWS V14.01,2013-08-06 00:40:00,
2013-08-05 19:41:00,79.9,74.0,29.88,North,359,1.0,3.0,81,0.00,,,0.10,weatherlink.com 1.10,2013-08-06 00:41:00,
2013-08-05 19:50:00,79.8,73.8,29.88,North,0,1.0,2.0,82,0.00,,---,0.10,VWS V14.01,2013-08-06 00:50:00,
2013-08-05 19:56:00,79.6,74.0,29.88,North,353,0.0,2.0,82,0.00,,,0.10,weatherlink.com 1.10,2013-08-06 00:56:00,
2013-08-05 20:00:00,79.7,73.7,29.88,North,0,0.0,2.0,82,0.00,,---,0.10,VWS V14.01,2013-08-06 01:00:00,
2013-08-05 20:10:00,79.4,73.4,29.88,NNE,22,1.0,2.0,82,0.00,,---,0.10,VWS V14.01,2013-08-06 01:10:00,
2013-08-05 20:20:00,79.3,73.7,29.88,North,0,0.0,1.0,83,0.00,,---,0.10,VWS V14.01,2013-08-06 01:20:00,
2013-08-05 20:30:00,78.9,73.7,29.87,North,0,1.0,2.0,84,0.00,,---,0.10,VWS V14.01,2013-08-06 01:30:00,
2013-08-05 20:40:00,78.6,73.4,29.86,NNE,22,1.0,3.0,84,0.00,,---,0.10,VWS V14.01,2013-08-06 01:40:00,
2013-08-05 20:41:00,78.7,74.0,29.86,NNE,19,1.0,3.0,84,0.00,,,0.10,weatherlink.com 1.10,2013-08-06 01:41:00,
2013-08-05 20:50:00,78.7,73.5,29.86,NE,45,1.0,2.0,84,0.00,,---,0.10,VWS V14.01,2013-08-06 01:50:00,
2013-08-05 20:56:00,78.7,74.0,29.86,East,101,1.0,2.0,84,0.00,,,0.10,weatherlink.com 1.10,2013-08-06 01:56:00,
2013-08-05 21:00:00,78.7,73.5,29.86,ENE,68,1.0,2.0,84,0.00,,---,0.10,VWS V14.01,2013-08-06 02:00:00,
2013-08-05 21:10:00,78.7,73.5,29.86,East,90,1.0,2.0,84,0.00,,---,0.10,VWS V14.01,2013-08-06 02:10:00,
2013-08-05 21:20:00,78.6,73.4,29.86,ESE,112,0.0,1.0,84,0.00,,---,0.10,VWS V14.01,2013-08-06 02:20:00,
2013-08-05 21:26:00,78.6,73.0,29.86,ESE,105,0.0,1.0,84,0.00,,,0.10,weatherlink.com 1.10,2013-08-06 02:26:00,
2013-08-05 21:30:00,78.5,73.3,29.86,SE,135,0.0,1.0,84,0.00,,---,0.10,VWS V14.01,2013-08-06 02:30:00,
2013-08-05 21:40:00,78.3,73.4,29.85,East,90,0.0,2.0,85,0.00,,---,0.10,VWS V14.01,2013-08-06 02:40:00,
2013-08-05 21:50:00,78.2,73.3,29.86,ESE,112,0.0,1.0,85,0.00,,---,0.10,VWS V14.01,2013-08-06 02:50:00,
2013-08-05 21:56:00,78.2,73.0,29.85,SSE,155,0.0,1.0,85,0.00,,,0.10,weatherlink.com 1.10,2013-08-06 02:56:00,
2013-08-05 22:00:00,78.1,73.2,29.85,SSE,158,0.0,1.0,85,0.00,,---,0.10,VWS V14.01,2013-08-06 03:00:00,
2013-08-05 22:10:00,78.1,73.6,29.85,SSE,158,0.0,0.0,86,0.00,,---,0.10,VWS V14.01,2013-08-06 03:10:00,
2013-08-05 22:11:00,77.7,73.0,29.85,SSE,155,0.0,0.0,86,0.00,,,0.10,weatherlink.com 1.10,2013-08-06 03:11:00,
2013-08-05 22:20:00,77.6,73.4,29.85,SSE,158,0.0,0.0,87,0.00,,---,0.10,VWS V14.01,2013-08-06 03:20:00,
2013-08-05 22:26:00,77.0,73.0,29.86,SSE,155,0.0,0.0,87,0.00,,,0.10,weatherlink.com 1.10,2013-08-06 03:26:00,
2013-08-05 22:30:00,77.1,73.3,29.86,SSE,158,0.0,0.0,88,0.00,,---,0.10,VWS V14.01,2013-08-06 03:30:00,
2013-08-05 22:40:00,76.9,73.1,29.86,SSE,158,0.0,0.0,88,0.00,,---,0.10,VWS V14.01,2013-08-06 03:40:00,
2013-08-05 22:41:00,76.8,73.0,29.86,SSE,155,0.0,0.0,88,0.00,,,0.10,weatherlink.com 1.10,2013-08-06 03:41:00,
2013-08-05 22:50:00,76.9,72.7,29.86,SSE,158,0.0,1.0,87,0.00,,---,0.10,VWS V14.01,2013-08-06 03:50:00,
2013-08-05 23:00:00,77.4,73.2,29.86,SSE,158,0.0,0.0,87,0.00,,---,0.10,VWS V14.01,2013-08-06 04:00:00,
2013-08-05 23:10:00,76.9,73.1,29.86,East,90,0.0,1.0,88,0.00,,---,0.10,VWS V14.01,2013-08-06 04:10:00,
2013-08-05 23:11:00,76.9,73.0,29.86,SSE,153,1.0,1.0,88,0.00,,,0.10,weatherlink.com 1.10,2013-08-06 04:11:00,
2013-08-05 23:20:00,76.7,73.2,29.87,SSE,158,1.0,2.0,89,0.00,,---,0.10,VWS V14.01,2013-08-06 04:20:00,
2013-08-05 23:26:00,76.5,73.0,29.87,South,182,1.0,2.0,89,0.00,,,0.10,weatherlink.com 1.10,2013-08-06 04:26:00,
2013-08-05 23:30:00,76.5,73.0,29.87,South,180,1.0,2.0,89,0.00,,---,0.10,VWS V14.01,2013-08-06 04:30:00,
2013-08-05 23:40:00,76.2,72.7,29.86,SSW,202,1.0,2.0,89,0.00,,---,0.10,VWS V14.01,2013-08-06 04:40:00,
2013-08-05 23:41:00,76.0,73.0,29.86,SSW,195,0.0,2.0,89,0.00,,,0.10,weatherlink.com 1.10,2013-08-06 04:41:00,
2013-08-05 23:50:00,75.9,72.8,29.87,SSE,158,0.0,1.0,90,0.00,,---,0.10,VWS V14.01,2013-08-06 04:50:00,
2013-08-05 23:56:00,76.1,73.0,29.88,South,190,0.0,2.0,89,0.00,,,0.10,weatherlink.com 1.10,2013-08-06 04:56:00,